GPS BIIRM-2 (PRN 31)

Last updated on July 6, 2021, 3:39 p.m. UTC

1 29486U 06042A   21186.12479753  .00000077  00000-0  00000-0 0  9991
2 29486  54.7676 223.1003 0099700  13.9655 344.0965  2.00576454108127
UTC
Height (km)
Latitude
Longitude
Inclination
Orbital Period
UTC large
Height (km)
Speed (km/s)
/
Latitude / Longitude
Inclination (degrees)
Orbital Period (minutes)
Azimuth
Elevation
Range (km)
Doppler Factor
iOS Compass Heading
iOS Angle